Weather Roundup
Issued by NWS Springfield, MO

Home | Current Version | Previous Version | Text Only | Print | Product List | Glossary On
Versions: 1 2 3 4 5 6 7 8 9 10 11 12 13 14 15 16 17 18 19 20 21 22 23 24 25 26 27 28 29 30 31 32 33 34 35 36 37 38 39 40 41 42 43 44 45 46 47 48 49 50
000
NZUS99 KSGF 050857
HRRSGF

HOURLY WEATHER
NATIONAL WEATHER SERVICE SPRINGFIELD MO
400 AM CDT SAT SEP 05 2015

......SGF CWA......

CITY           SKY/WX    TMP DP  RH WIND       PRES   REMARKS
SPRINGFIELD    CLEAR     74  66  76 SE9       30.04R
JOPLIN         CLEAR     76  68  76 SE8       30.01R
WEST PLAINS    CLEAR     68  65  90 NE3       30.08S FOG
ROLLA          CLEAR     70  67  90 S5        30.05R

......SURROUNDING SGF CWA......

CITY           SKY/WX    TMP DP  RH WIND       PRES   REMARKS
CHANUTE        CLEAR     72  69  90 SE6       29.99S
PARSONS        CLEAR     75  70  84 SE5       29.99S
COFFEYVILLE    CLEAR     73  69  87 S5        29.98R
EMPORIA        CLEAR     72  69  90 S8        29.98R
HARRISON AR    CLEAR     71  68  90 SE5       30.06S

......KANSAS AND MISSOURI......

CITY           SKY/WX    TMP DP  RH WIND       PRES   REMARKS
KANSAS CTY INT CLEAR     74  69  85 S9        29.99S
SEDALIA        CLEAR     73  68  84 S6        30.03S
ST JOSEPH      CLEAR     73  69  87 S6        29.98S
ST LOUIS       CLEAR     78  67  68 SW8       30.04S
WICHITA        CLEAR     74  68  81 SE8       29.96S
TOPEKA         CLEAR     74  69  85 CALM      29.97S
OLATHE         CLEAR     71  69  93 S5        30.00S

......TENNESSEE......

CITY           SKY/WX    TMP DP  RH WIND       PRES   REMARKS
MEMPHIS        NOT AVBL
NASHVILLE      PTCLDY    72  67  84 CALM      30.05R

......ARKANSAS.......

CITY           SKY/WX    TMP DP  RH WIND       PRES   REMARKS
FAYETTEVILLE   CLEAR     67  67 100 CALM      30.04S FOG
FT SMITH       CLEAR     76  70  82 NE5       29.99R
LITTLE ROCK    CLEAR     75  70  84 NE3       30.00S

......OKLAHOMA.......

CITY           SKY/WX    TMP DP  RH WIND       PRES   REMARKS
TULSA          CLEAR     79  72  79 S8        29.96R
PONCA CITY     CLEAR     78  69  73 SE12      29.96R
MCALESTER      PTCLDY    76  69  79 SE5       29.99R
OKLAHOMA CITY  PTCLDY    75  68  78 SE9       29.98R

......IOWA............

CITY           SKY/WX    TMP DP  RH WIND       PRES   REMARKS
DES MOINES     NOT AVBL
QUAD CITIES    MOCLDY    76  68  76 CALM      30.02R

......ILLINOIS........

CITY           SKY/WX    TMP DP  RH WIND       PRES   REMARKS
QUINCY         NOT AVBL
CHICAGO        PTCLDY    70  67  90 CALM      30.05S




USA.gov is the U.S. government's official web portal to all federal, state and local government web resources and services.